Starlink 36122

operational
NORAD ID: 66952 Int'l Des: 2025-286 Owner: SPXS Country: US Constellation: starlink
LEOCIRCULAR

Starlink 36122について

説明を読み込み中...

リアルタイム位置

3D地球を読み込み中...

次回通過

高度履歴

Altitude vs Time

uPlot chart will show altitude changes over time

軌道要素

1 66952U 25286AD 25347.58336806 -.01313099 52988-3 -28990-2 0 9994
2 66952 53.1567 46.3743 0000877 55.7828 260.0053 15.97402048 2122
Epoch: Dec 13, 2025 • Age: 19 hours

現在のステータス

高度 289.9 km
速度 7.73 km/s
衛星直下点 -7.57°S, 9.63°E
打ち上げ日 Dec 7, 2025
運用期間 6 days
タイプ internet

技術仕様

分類 Payload
質量 575.00 kg
乾燥質量 530.00 kg
総質量 575.00 kg
長さ 0.30 m
直径 4.10 m
スパン 29.00 m
形状 Box + pan
製造者 SPXS
バスタイプ Starlink V2MO
フェーズステータス In Orbit
所有者/国 SPXS/US

大規模コンステレーション

Loading constellations...